Printer-friendly version
Follow the MPC on Twitter Follow the MPC on Facebook The MPC blog
Minor Planet Center

MPEC 2007-C53 : 2007 CF19

The following Minor Planet Electronic Circular may be linked-to from your own Web pages, but must not otherwise be redistributed electronically.

A form allowing access to any MPEC is at the bottom of this page.


Read MPEC 2007-C52 Read MPEC 2007-C54


M.P.E.C. 2007-C53                                Issued 2007 Feb. 12, 19:05 UT

     The Minor Planet Electronic Circulars contain information on unusual
         minor planets and routine data on comets.  They are published
   on behalf of Commission 20 of the International Astronomical Union by the
          Minor Planet Center, Smithsonian Astrophysical Observatory,
                          Cambridge, MA 02138, U.S.A.

             Prepared using the Tamkin Foundation Computer Network

                              MPC@CFA.HARVARD.EDU
          URL http://cfa-www.harvard.edu/iau/mpc.html  ISSN 1523-6714

                                   2007 CF19

Observations:
     K07C19F  C2007 01 17.31465 09 21 39.24 +29 33 04.2          19.5 V EC053703
     K07C19F  C2007 01 17.32117 09 21 38.70 +29 33 01.3          19.9 V EC053703
     K07C19F  C2007 01 23.26940 09 13 52.61 +28 44 17.8          19.4   EC053704
     K07C19F  C2007 01 23.29383 09 13 50.33 +28 44 03.3          19.6   EC053704
     K07C19F  C2007 01 23.30605 09 13 49.05 +28 43 56.9          19.5   EC053704
     K07C19F  C2007 01 23.31826 09 13 47.98 +28 43 49.5          19.3   EC053704
     K07C19F  C2007 01 28.25245 09 05 42.39 +27 48 56.3          19.7 V EC053703
     K07C19F  C2007 01 28.25801 09 05 41.67 +27 48 52.0          19.4 V EC053703
     K07C19F  C2007 01 28.26355 09 05 41.10 +27 48 48.4          19.0 V EC053703
     K07C19F  C2007 01 28.26909 09 05 40.45 +27 48 43.9          19.0 V EC053703
     K07C19F* C2007 02 10.23350 08 38 47.41 +23 59 42.4          18.5 R EC053644
     K07C19F  C2007 02 10.25402 08 38 44.48 +23 59 14.6          18.5 R EC053644
     K07C19F  C2007 02 10.27448 08 38 41.55 +23 58 47.0          19.3 R EC053644
     K07C19F  C2007 02 11.05585 08 36 53.59 +23 40 19.8          18.5 R EC053473
     K07C19F  C2007 02 11.06156 08 36 52.78 +23 40 11.4          18.5 R EC053473
     K07C19F  C2007 02 11.06930 08 36 51.67 +23 40 00.0          18.3 R EC053473
     K07C19F  C2007 02 11.13702008 36 43.49 +23 38 26.2          19.5   EC053H55
     K07C19F  C2007 02 11.14381108 36 42.51 +23 38 16.3          19.5   EC053H55
     K07C19F  C2007 02 11.14987708 36 41.64 +23 38 07.8          19.5   EC053H55
     K07C19F  C2007 02 11.16658 08 36 38.07 +23 37 38.4                 EC053204
     K07C19F  C2007 02 11.17280 08 36 37.25 +23 37 29.4          18.3 R EC053204
     K07C19F  C2007 02 11.20382 08 36 33.95 +23 36 50.2          18.4 R EC053H36
     K07C19F  C2007 02 11.20682 08 36 33.56 +23 36 45.7          18.4 R EC053H36
     K07C19F  C2007 02 11.20983 08 36 33.13 +23 36 41.4          18.1 R EC053H36
     K07C19F  C2007 02 11.21284 08 36 32.73 +23 36 37.4          18.3 R EC053H36
     K07C19F  C2007 02 11.21584 08 36 32.28 +23 36 33.3          18.6 R EC053H36
     K07C19F  C2007 02 11.21591 08 36 32.12 +23 36 34.6          19.0 R EC053850
     K07C19F  C2007 02 11.22341 08 36 31.06 +23 36 23.3          18.5 R EC053850
     K07C19F  C2007 02 11.23088 08 36 29.96 +23 36 12.6          19.0 R EC053850
     K07C19F  C2007 02 11.23838 08 36 28.84 +23 36 01.7          18.6 R EC053850
     K07C19F  C2007 02 11.24588 08 36 27.80 +23 35 50.9          18.7 R EC053850
     K07C19F  C2007 02 11.25341 08 36 26.70 +23 35 40.2          19.1 R EC053850
     K07C19F  C2007 02 11.26090 08 36 25.69 +23 35 29.5          18.7 R EC053850
     K07C19F  C2007 02 11.26837 08 36 24.54 +23 35 18.3          17.9 R EC053850
     K07C19F  C2007 02 11.27585 08 36 23.50 +23 35 07.5          18.9 R EC053850
     K07C19F  C2007 02 11.28335 08 36 22.40 +23 34 56.1          18.9 R EC053850
     K07C19F  C2007 02 11.29084 08 36 21.34 +23 34 45.6          18.8 R EC053850
     K07C19F  C2007 02 11.29834 08 36 20.26 +23 34 34.0          19.1 R EC053850
     K07C19F  C2007 02 11.81284 08 35 10.47 +23 22 02.3          18.9 V EC053595
     K07C19F  C2007 02 11.81875 08 35 09.59 +23 21 53.3          18.7 V EC053595
     K07C19F  C2007 02 11.82394 08 35 08.87 +23 21 45.7          18.7 V EC053595
     K07C19F  C2007 02 11.82913 08 35 08.11 +23 21 38.2          18.9 V EC053595
     K07C19F  C2007 02 11.83836508 35 06.87 +23 21 23.8          19.0 R EC053143
     K07C19F  C2007 02 11.85424208 35 04.59 +23 21 00.7          18.7 R EC053143
     K07C19F  C2007 02 11.86374 08 35 03.32 +23 20 47.7          18.6 R EC053213
     K07C19F  C2007 02 11.86482908 35 03.10 +23 20 45.2          18.8 R EC053143
     K07C19F  C2007 02 11.88356 08 35 00.49 +23 20 18.8          19.2 R EC053213
     K07C19F  C2007 02 11.90082 08 34 58.04 +23 19 53.7          18.7 R EC053213
     K07C19F  C2007 02 12.08884 08 34 32.44 +23 15 16.6          18.7 R EC053850
     K07C19F  C2007 02 12.09633 08 34 31.36 +23 15 05.4          18.4 R EC053850
     K07C19F  C2007 02 12.10382 08 34 30.28 +23 14 54.3          18.3 R EC053850
     K07C19F  C2007 02 12.11130 08 34 29.19 +23 14 43.3          18.5 R EC053850
     K07C19F  C2007 02 12.11879 08 34 28.12 +23 14 32.3          18.5 R EC053850
     K07C19F  C2007 02 12.12628 08 34 27.06 +23 14 21.6          18.5 R EC053850
     K07C19F  C2007 02 12.13376 08 34 25.99 +23 14 10.7          18.2 R EC053850
     K07C19F  C2007 02 12.14126 08 34 24.87 +23 13 59.0          18.5 R EC053850
     K07C19F  C2007 02 12.14875 08 34 23.79 +23 13 47.9          18.5 R EC053850

Observer details:
143 Gnosca.  Observer S. Sposetti.  0.40-m f/4 reflector + CCD.
204 Schiaparelli Observatory.  Observers L. Buzzi, F. Luppi.  Measurer
    L. Buzzi.  0.60-m f/4.64 reflector + CCD.
213 Observatorio Montcabre.  Observer R. Naves.  Measurer M. Campas.  0.30-m
    f/10 Schmidt-Cassegrain + CCD.
473 Remanzacco.  Observers G. Sostero, E. Guido.  0.45-m f/4.4 Newtonian
    reflector + CCD.
595 Farra d'Isonzo.  Observers L. Bittesini, G. Lombardi, E. Pettarin,
    F. Piani.  0.40-m f/4.5 reflector + CCD.
644 Palomar Mountain/NEAT.  Observers M. Brown, R. Bambery, K. Lawrence,
    M. Hicks, E. Helin, R. Thicksten.  1.2-m Schmidt + CCD.
703 Catalina Sky Survey.  Observers E. J. Christensen, R. A. Kowalski.
    Measurers E. C. Beshore, E. J. Christensen, G. J. Garradd, A. R. Gibbs,
    A. D. Grauer, R. E. Hill, R. A. Kowalski, S. M. Larson, R. H. McNaught.
    0.68-m Schmidt + CCD.
704 Lincoln Laboratory ETS, New Mexico.  Observers M. Bezpalko, D. Torres,
    R. Kracke, G. Spitz, J. Kistler.  Measurers J. Stuart, S. Scruggs.  1.0-m
    f/2.15 reflector + CCD.
850 Cordell-Lorenz Observatory, Sewanee.  Observers D. T. Durig,
    W. R. O'Farrell.  0.30-m f/9.7 Schmidt-Cassegrain + 1Kx1K CCD.
H36 Sandlot Observatory, Scranton.  Observer G. Hug.  0.30-m
    Schmidt-Cassegrain + CCD.
H55 Astronomical Research Observatory, Charleston.  Observer R. Holmes.
    0.81-m f/4.0 astrograph + CCD.

Orbital elements:
2007 CF19                                                Earth MOID = 0.2537 AU
Epoch 2007 Apr. 10.0 TT = JDT 2454200.5                 MPC
M 355.90590              (2000.0)            P               Q
n   0.19105745     Peri.  244.46698     -0.87111922     +0.45140686
a   2.9855664      Node   321.51772     -0.25837775     -0.75613959
e   0.6305482      Incl.   18.10211     -0.41760298     -0.47379822
P   5.16           H   18.8           G   0.15           U   6
Residuals in seconds of arc
070117 703  0.4+  0.5+    070211 204  0.3-  0.2+    070211 595  0.3+  0.9+
070117 703  0.6-  0.2+    070211 204  0.3+  0.4+    070211 595  0.2-  0.5+
070123 704  0.1+  0.1+    070211 H36  1.0-  0.4-    070211 595  0.1+  0.4+
070123 704  0.5+  0.6-    070211 H36  0.4-  0.6-    070211 595  0.2-  0.4+
070123 704  1.1-  0.0     070211 H36  0.3-  0.6-    070211 143  0.1+  0.2-
070123 704  0.1+  0.4-    070211 H36  0.1+  0.3-    070211 143  0.1-  0.2-
070128 703  0.9+  0.0     070211 H36  0.1-  0.1-    070211 213  0.6-  0.3-
070128 703  0.4-  0.2-    070211 850  0.2+  0.3+    070211 143  0.3+  0.3-
070128 703  0.3+  0.3+    070211 850  0.4+  0.2-    070211 213  0.5-  0.4-
070128 703  0.1-  0.0     070211 850  0.1+  0.1-    070211 213  0.1-  0.2-
070210 644  0.5-  0.2-    070211 850  0.4-  0.2-    070212 850  0.4+  0.3+
070210 644  0.4-  0.2+    070211 850  0.2+  0.1-    070212 850  0.3+  0.0
070210 644  0.4-  0.9+    070211 850  0.1-  0.1+    070212 850  0.2+  0.1-
070211 473  0.1+  0.3+    070211 850  0.9+  0.3+    070212 850  0.0   0.1-
070211 473  0.1+  0.2+    070211 850  0.2-  0.0     070212 850  0.1+  0.1-
070211 473  0.1-  0.1+    070211 850  0.3+  0.0     070212 850  0.3+  0.2+
070211 H55  0.1+  0.3+    070211 850  0.0   0.4-    070212 850  0.5+  0.3+
070211 H55  0.0   0.1+    070211 850  0.2+  0.0     070212 850  0.1-  0.3-
070211 H55  0.0   0.2+    070211 850  0.1+  0.6-    070212 850  0.0   0.4-

Ephemeris:
2007 CF19                a,e,i = 2.99, 0.63, 18                  q = 1.1030
Date    TT    R. A. (2000) Decl.     Delta      r     Elong.  Phase     V
2007 02 09    08 41.59   +24 27.6    0.519    1.494   165.4     9.6    18.9
2007 02 19    08 18.66   +20 03.4    0.467    1.419   152.4    18.8    18.9
2007 03 01    07 57.94   +14 20.4    0.436    1.348   138.4    29.2    18.9
2007 03 11    07 42.72   +07 46.8    0.421    1.282   125.1    39.3    19.0
2007 03 21    07 34.44   +00 52.5    0.416    1.224   113.7    48.2    19.1
2007 03 31    07 33.09   -06 06.2    0.417    1.175   104.6    55.3    19.3
2007 04 10    07 37.87   -13 05.7    0.419    1.137    97.9    60.7    19.4
2007 04 20    07 48.21   -20 07.3    0.421    1.113    93.6    64.3    19.4
2007 04 30    08 04.19   -27 14.2    0.422    1.103    91.7    65.9    19.5
2007 05 10    08 26.69   -34 24.6    0.423    1.109    92.1    65.5    19.5
2007 05 20    08 58.08   -41 28.5    0.426    1.129    94.6    63.3    19.5
2007 05 30    09 42.11   -48 03.4    0.433    1.163    99.1    59.4    19.4
2007 06 09    10 42.55   -53 20.7    0.448    1.209   104.7    54.3    19.4
2007 06 19    11 58.63   -56 13.3    0.475    1.265   110.7    48.7    19.5
2007 06 29    13 19.09   -56 02.1    0.519    1.329   115.9    43.5    19.7
2007 07 09    14 29.37   -53 20.3    0.583    1.398   119.4    39.3    19.9
2007 07 19    15 24.34   -49 24.2    0.666    1.472   120.7    36.4    20.2
2007 07 29    16 06.64   -45 16.3    0.768    1.549   120.0    34.6    20.6
2007 08 08    16 40.22   -41 27.3    0.889    1.628   117.6    33.5    21.0
2007 08 18    17 08.19   -38 07.0    1.025    1.709   114.0    32.8    21.4
2007 08 28    17 32.57   -35 15.4    1.176    1.789   109.6    32.1    21.8

Gareth V. Williams           (C) Copyright 2007 MPC           M.P.E.C. 2007-C53

Read MPEC 2007-C52 Read MPEC 2007-C54


MPEC number:

Enter an MPEC number in one of the following forms:

  • 1997-B01 (the full form)
  • J97B01 (the packed version of the full form)
  • B01 (the abbreviated form)

Valid HTML 4.01!